| time (UTC) | temp F | wind direction | speed knots | gust knots | rain 1hr in | rain 24hr in | rain mn in | humidity % | barometer mb |
| 20260504205010 | 70 | 249 | 9.6 | 16.5 | 0.00 | 0.00 | 0.00 | 33 | 1006.0 |
| 20260504204526 | 70 | 265 | 7.0 | 13.9 | 0.00 | 0.00 | 0.00 | 33 | 1006.0 |
| 20260504204009 | 70 | 254 | 7.0 | 18.2 | 0.00 | 0.00 | 0.00 | 32 | 1005.9 |
| 20260504203507 | 71 | 280 | 8.7 | 18.2 | 0.00 | 0.00 | 0.00 | 32 | 1006.0 |
| 20260504203029 | 70 | 272 | 5.2 | 13.0 | 0.00 | 0.00 | 0.00 | 32 | 1005.9 |
| 20260504202511 | 70 | 252 | 7.8 | 13.9 | 0.00 | 0.00 | 0.00 | 33 | 1006.0 |
| 20260504202007 | 70 | 229 | 4.3 | 13.9 | 0.00 | 0.00 | 0.00 | 33 | 1006.0 |
| 20260504201526 | 69 | 229 | 5.2 | 13.9 | 0.00 | 0.00 | 0.00 | 32 | 1005.9 |
| 20260504201011 | 70 | 236 | 6.1 | 13.9 | 0.00 | 0.00 | 0.00 | 32 | 1006.0 |
| 20260504200509 | 71 | 296 | 7.0 | 13.0 | 0.00 | 0.00 | 0.00 | 33 | 1006.0 |
| 20260504200038 | 69 | 138 | 4.3 | 11.3 | 0.00 | 0.00 | 0.00 | 32 | 1006.0 |
| 20260504195507 | 69 | 277 | 5.2 | 13.0 | 0.00 | 0.00 | 0.00 | 34 | 1006.0 |
| 20260504195008 | 69 | 281 | 3.5 | 13.0 | 0.00 | 0.00 | 0.00 | 34 | 1006.0 |
| 20260504194528 | 69 | 294 | 3.5 | 11.3 | 0.00 | 0.00 | 0.00 | 33 | 1006.2 |
| 20260504194014 | 70 | 297 | 6.1 | 13.9 | 0.00 | 0.00 | 0.00 | 32 | 1006.1 |
| 20260504193509 | 70 | 279 | 7.8 | 13.9 | 0.00 | 0.00 | 0.00 | 33 | 1006.0 |
| 20260504193027 | 71 | 229 | 5.2 | 10.4 | 0.00 | 0.00 | 0.00 | 31 | 1006.1 |
| 20260504192509 | 71 | 167 | 7.0 | 14.8 | 0.00 | 0.00 | 0.00 | 32 | 1005.9 |
| 20260504192009 | 71 | 271 | 5.2 | 13.9 | 0.00 | 0.00 | 0.00 | 30 | 1006.1 |
| 20260504191538 | 71 | 260 | 5.2 | 14.8 | 0.00 | 0.00 | 0.00 | 34 | 1006.2 |
| 20260504191010 | 71 | 245 | 6.1 | 14.8 | 0.00 | 0.00 | 0.00 | 32 | 1006.2 |
| 20260504190507 | 71 | 306 | 7.0 | 13.9 | 0.00 | 0.00 | 0.00 | 31 | 1006.3 |
| 20260504190012 | 70 | 273 | 7.8 | 12.2 | 0.00 | 0.00 | 0.00 | 31 | 1006.4 |
| 20260504185511 | 71 | 258 | 4.3 | 13.9 | 0.00 | 0.00 | 0.00 | 30 | 1006.3 |
| 20260504185006 | 70 | 286 | 8.7 | 17.4 | 0.00 | 0.00 | 0.00 | 31 | 1006.4 |
| 20260504184528 | 71 | 227 | 5.2 | 17.4 | 0.00 | 0.00 | 0.00 | 33 | 1006.5 |
| 20260504184007 | 70 | 246 | 7.0 | 16.5 | 0.00 | 0.00 | 0.00 | 31 | 1006.5 |
| 20260504183503 | 70 | 262 | 7.8 | 17.4 | 0.00 | 0.00 | 0.00 | 32 | 1006.6 |
| 20260504183033 | 69 | 294 | 7.0 | 24.3 | 0.00 | 0.00 | 0.00 | 29 | 1006.7 |
| 20260504182509 | 70 | 288 | 8.7 | 19.1 | 0.00 | 0.00 | 0.00 | 33 | 1006.7 |
| 20260504182011 | 70 | 196 | 6.1 | 13.0 | 0.00 | 0.00 | 0.00 | 30 | 1006.7 |
| 20260504181523 | 70 | 272 | 6.1 | 16.5 | 0.00 | 0.00 | 0.00 | 33 | 1006.7 |
| 20260504181011 | 69 | 281 | 7.8 | 23.5 | 0.00 | 0.00 | 0.00 | 31 | 1006.7 |
| 20260504180515 | 69 | 183 | 8.7 | 23.5 | 0.00 | 0.00 | 0.00 | 30 | 1006.7 |
| 20260504180021 | 70 | 253 | 4.3 | 14.8 | 0.00 | 0.00 | 0.00 | 30 | 1006.8 |
| 20260504175507 | 69 | 151 | 5.2 | 13.9 | 0.00 | 0.00 | 0.00 | 35 | 1006.7 |
| 20260504175010 | 69 | 259 | 8.7 | 13.9 | 0.00 | 0.00 | 0.00 | 30 | 1006.7 |
| 20260504174526 | 69 | 242 | 7.0 | 13.0 | 0.00 | 0.00 | 0.00 | 30 | 1006.8 |
| 20260504174006 | 70 | 275 | 7.0 | 20.0 | 0.00 | 0.00 | 0.00 | 33 | 1006.9 |
| 20260504173503 | 68 | 264 | 4.3 | 20.0 | 0.00 | 0.00 | 0.00 | 36 | 1006.8 |
| 20260504173018 | 68 | 252 | 9.6 | 19.1 | 0.00 | 0.00 | 0.00 | 34 | 1006.9 |
| 20260504172510 | 68 | 196 | 10.4 | 19.1 | 0.00 | 0.00 | 0.00 | 31 | 1007.0 |
| 20260504172007 | 68 | 232 | 10.4 | 19.1 | 0.00 | 0.00 | 0.00 | 32 | 1006.9 |
| 20260504171521 | 68 | 323 | 7.0 | 20.0 | 0.00 | 0.00 | 0.00 | 35 | 1006.9 |
| 20260504171013 | 68 | 273 | 8.7 | 20.0 | 0.00 | 0.00 | 0.00 | 33 | 1007.1 |
| 20260504170510 | 69 | 255 | 7.8 | 20.0 | 0.00 | 0.00 | 0.00 | 33 | 1007.1 |
| 20260504151003 | 63 | 5 | 4.3 | 16.5 | 0.00 | 0.00 | 0.00 | 40 | 1008.5 |
| 20260504150511 | 64 | 257 | 8.7 | 14.8 | 0.00 | 0.00 | 0.00 | 38 | 1008.3 |
| 20260504141011 | 62 | 276 | 4.3 | 11.3 | 0.00 | 0.00 | 0.00 | 40 | 1008.8 |
| 20260504140508 | 62 | 278 | 3.5 | 11.3 | 0.00 | 0.00 | 0.00 | 40 | 1008.8 |
| 20260504130510 | 57 | 266 | 4.3 | 7.0 | 0.00 | 0.00 | 0.00 | 48 | 1009.8 |
| 20260504110506 | 47 | 50 | 0.9 | 6.1 | 0.00 | 0.00 | 0.00 | 60 | 1010.1 |
| 20260504100507 | 41 | 265 | 0.0 | 1.7 | 0.00 | 0.00 | 0.00 | 80 | 1010.1 |
| 20260504081527 | 41 | 268 | 0.9 | 1.7 | 0.00 | 0.00 | 0.00 | 78 | 1010.1 |
| 20260504081009 | 41 | 268 | 0.0 | 1.7 | 0.00 | 0.00 | 0.00 | 76 | 1010.0 |
| 20260504080510 | 41 | 268 | 0.0 | 0.0 | 0.00 | 0.00 | 0.00 | 74 | 1010.0 |
| 20260504050504 | 38 | 267 | 1.7 | 5.2 | 0.00 | 0.00 | 0.00 | 77 | 1009.9 |
| 20260504045503 | 36 | 261 | 1.7 | 3.5 | 0.00 | 0.00 | 0.00 | 83 | 1010.0 |
| 20260504045012 | 36 | 263 | 0.9 | 1.7 | 0.00 | 0.00 | 0.00 | 83 | 1010.0 |
| 20260504044508 | 35 | 263 | 0.9 | 1.7 | 0.00 | 0.00 | 0.00 | 83 | 1010.0 |
| 20260504044006 | 35 | 261 | 0.9 | 1.7 | 0.00 | 0.00 | 0.00 | 84 | 1010.1 |
| 20260504043506 | 35 | 259 | 0.9 | 1.7 | 0.00 | 0.00 | 0.00 | 82 | 1010.1 |
| 20260504043010 | 35 | 253 | 0.9 | 1.7 | 0.00 | 0.00 | 0.00 | 83 | 1010.1 |
| 20260504042504 | 34 | 251 | 0.9 | 1.7 | 0.00 | 0.00 | 0.00 | 84 | 1010.0 |
| 20260504042006 | 34 | 251 | 0.9 | 1.7 | 0.00 | 0.00 | 0.00 | 83 | 1010.0 |
| 20260504041508 | 34 | 251 | 0.9 | 1.7 | 0.00 | 0.00 | 0.00 | 83 | 1009.9 |
| 20260504041005 | 35 | 254 | 0.9 | 1.7 | 0.00 | 0.00 | 0.00 | 83 | 1009.9 |
| 20260504040507 | 35 | 255 | 0.9 | 0.9 | 0.00 | 0.00 | 0.00 | 83 | 1009.8 |
| 20260504040008 | 35 | 255 | 0.9 | 0.9 | 0.00 | 0.00 | 0.00 | 83 | 1009.7 |
| 20260504035504 | 35 | 255 | 0.9 | 0.9 | 0.00 | 0.00 | 0.00 | 81 | 1009.8 |
| 20260504035006 | 35 | 255 | 0.0 | 1.7 | 0.00 | 0.00 | 0.00 | 82 | 1009.7 |
| 20260504034509 | 35 | 255 | 0.0 | 1.7 | 0.00 | 0.00 | 0.00 | 82 | 1009.6 |
| 20260504034003 | 35 | 255 | 0.9 | 1.7 | 0.00 | 0.00 | 0.00 | 83 | 1009.6 |
| 20260504033507 | 35 | 255 | 0.9 | 1.7 | 0.00 | 0.00 | 0.00 | 82 | 1009.6 |
| 20260504033007 | 35 | 255 | 0.9 | 1.7 | 0.00 | 0.00 | 0.00 | 82 | 1009.6 |
| 20260504032507 | 35 | 255 | 0.9 | 1.7 | 0.00 | 0.00 | 0.00 | 81 | 1009.6 |
| 20260504032008 | 35 | 255 | 0.9 | 0.9 | 0.00 | 0.00 | 0.00 | 79 | 1009.6 |
| 20260504031510 | 35 | 255 | 0.9 | 1.7 | 0.00 | 0.00 | 0.00 | 77 | 1009.6 |
| 20260504031006 | 36 | 255 | 0.0 | 1.7 | 0.00 | 0.00 | 0.00 | 77 | 1009.6 |
| 20260504030504 | 36 | 255 | 0.0 | 0.9 | 0.00 | 0.00 | 0.00 | 76 | 1009.5 |
| 20260504030030 | 36 | 255 | 0.9 | 0.9 | 0.00 | 0.00 | 0.00 | 76 | 1009.5 |
| 20260504025507 | 36 | 255 | 0.0 | 0.9 | 0.00 | 0.00 | 0.00 | 77 | 1009.6 |
| 20260504025007 | 36 | 255 | 0.0 | 0.9 | 0.00 | 0.00 | 0.00 | 76 | 1009.5 |
| 20260504024512 | 36 | 255 | 0.0 | 1.7 | 0.00 | 0.00 | 0.00 | 76 | 1009.6 |
| 20260504024007 | 36 | 255 | 0.9 | 1.7 | 0.00 | 0.01 | 0.00 | 77 | 1009.6 |
| 20260504023506 | 36 | 255 | 0.9 | 1.7 | 0.00 | 0.01 | 0.00 | 76 | 1009.6 |
| 20260504023014 | 36 | 255 | 0.9 | 1.7 | 0.00 | 0.01 | 0.00 | 75 | 1009.6 |
| 20260504022509 | 36 | 255 | 0.9 | 1.7 | 0.00 | 0.01 | 0.00 | 75 | 1009.6 |
| 20260504022003 | 36 | 252 | 0.9 | 1.7 | 0.00 | 0.01 | 0.00 | 76 | 1009.6 |
| 20260504021516 | 36 | 252 | 0.9 | 0.9 | 0.00 | 0.01 | 0.00 | 75 | 1009.5 |
| 20260504021006 | 36 | 252 | 0.9 | 0.9 | 0.00 | 0.01 | 0.00 | 75 | 1009.5 |
| 20260504020505 | 37 | 252 | 0.9 | 0.9 | 0.00 | 0.01 | 0.00 | 74 | 1009.5 |
| 20260504020031 | 37 | 252 | 0.9 | 1.7 | 0.00 | 0.01 | 0.00 | 73 | 1009.5 |
| 20260504015506 | 37 | 252 | 0.9 | 1.7 | 0.00 | 0.01 | 0.00 | 73 | 1009.4 |
| 20260504015003 | 38 | 252 | 0.0 | 1.7 | 0.00 | 0.01 | 0.00 | 71 | 1009.5 |
| 20260504014531 | 38 | 252 | 0.9 | 1.7 | 0.00 | 0.01 | 0.00 | 72 | 1009.5 |
| 20260504014008 | 38 | 252 | 0.9 | 1.7 | 0.00 | 0.01 | 0.00 | 74 | 1009.4 |
| 20260504013503 | 38 | 254 | 0.9 | 1.7 | 0.00 | 0.01 | 0.00 | 74 | 1009.4 |
| 20260504013018 | 38 | 254 | 0.9 | 0.9 | 0.00 | 0.01 | 0.00 | 73 | 1009.3 |
| 20260504012507 | 38 | 255 | 0.9 | 0.9 | 0.00 | 0.01 | 0.00 | 71 | 1009.3 |
| 20260504012002 | 39 | 255 | 0.9 | 0.9 | 0.00 | 0.01 | 0.00 | 71 | 1009.3 |
| 20260504011520 | 39 | 255 | 0.0 | 0.9 | 0.00 | 0.01 | 0.00 | 69 | 1009.2 |
| 20260504011010 | 38 | 255 | 0.9 | 0.9 | 0.00 | 0.01 | 0.00 | 68 | 1009.2 |
| 20260504010502 | 39 | 255 | 0.9 | 0.9 | 0.00 | 0.01 | 0.00 | 67 | 1009.1 |
| 20260504010023 | 39 | 255 | 0.9 | 0.9 | 0.00 | 0.01 | 0.00 | 67 | 1009.0 |
| 20260504005507 | 39 | 254 | 0.9 | 1.7 | 0.00 | 0.01 | 0.00 | 66 | 1008.9 |
| 20260504005004 | 40 | 255 | 0.9 | 1.7 | 0.00 | 0.01 | 0.00 | 65 | 1008.8 |
| 20260504004522 | 41 | 254 | 0.0 | 1.7 | 0.00 | 0.01 | 0.00 | 63 | 1008.8 |
| 20260504004010 | 41 | 254 | 0.0 | 1.7 | 0.00 | 0.01 | 0.00 | 60 | 1008.8 |
| 20260504003505 | 41 | 255 | 0.0 | 1.7 | 0.00 | 0.01 | 0.00 | 61 | 1008.7 |
| 20260504003028 | 42 | 255 | 0.0 | 1.7 | 0.00 | 0.01 | 0.00 | 60 | 1008.7 |
| 20260504002506 | 41 | 255 | 0.0 | 0.9 | 0.00 | 0.01 | 0.00 | 64 | 1008.6 |
| 20260504002003 | 42 | 255 | 0.9 | 0.9 | 0.00 | 0.01 | 0.00 | 63 | 1008.5 |
| 20260504001523 | 42 | 255 | 0.9 | 0.9 | 0.00 | 0.01 | 0.00 | 62 | 1008.4 |
| 20260504001003 | 42 | 255 | 0.9 | 0.9 | 0.00 | 0.01 | 0.00 | 61 | 1008.3 |
| 20260504000507 | 43 | 255 | 0.9 | 0.9 | 0.00 | 0.01 | 0.00 | 60 | 1008.1 |
| 20260504000023 | 44 | 255 | 0.9 | 1.7 | 0.00 | 0.01 | 0.00 | 59 | 1008.1 |
| 20260503235503 | 44 | 254 | 0.9 | 1.7 | 0.00 | 0.01 | 0.00 | 58 | 1008.0 |
| 20260503235010 | 44 | 254 | 0.9 | 1.7 | 0.00 | 0.01 | 0.00 | 58 | 1008.0 |
| 20260503234536 | 46 | 254 | 0.9 | 1.7 | 0.00 | 0.01 | 0.00 | 54 | 1008.1 |
| 20260503234011 | 47 | 271 | 0.0 | 2.6 | 0.00 | 0.01 | 0.00 | 49 | 1008.0 |
| 20260503233505 | 48 | 271 | 0.9 | 2.6 | 0.00 | 0.01 | 0.00 | 47 | 1008.1 |
| 20260503233024 | 48 | 279 | 0.9 | 5.2 | 0.00 | 0.01 | 0.00 | 44 | 1008.1 |
| 20260503232507 | 49 | 272 | 0.9 | 5.2 | 0.00 | 0.01 | 0.00 | 44 | 1008.1 |
| 20260503232007 | 49 | 300 | 0.9 | 3.5 | 0.00 | 0.01 | 0.00 | 44 | 1008.0 |
| 20260503231527 | 49 | 302 | 0.9 | 3.5 | 0.00 | 0.01 | 0.00 | 43 | 1008.0 |
| 20260503231009 | 49 | 342 | 0.9 | 3.5 | 0.00 | 0.01 | 0.00 | 42 | 1007.9 |
| 20260503230507 | 50 | 244 | 0.9 | 3.5 | 0.00 | 0.01 | 0.00 | 42 | 1007.8 |
| 20260503230025 | 50 | 336 | 0.9 | 7.0 | 0.00 | 0.01 | 0.00 | 42 | 1007.7 |
| 20260503225503 | 50 | 292 | 2.6 | 9.6 | 0.00 | 0.01 | 0.00 | 40 | 1007.7 |
| 20260503225010 | 50 | 253 | 3.5 | 9.6 | 0.00 | 0.01 | 0.00 | 43 | 1007.6 |
| 20260503224524 | 50 | 350 | 3.5 | 10.4 | 0.00 | 0.01 | 0.00 | 43 | 1007.6 |
| 20260503224003 | 50 | 304 | 1.7 | 10.4 | 0.00 | 0.01 | 0.00 | 41 | 1007.6 |
| 20260503223507 | 51 | 248 | 4.3 | 10.4 | 0.00 | 0.01 | 0.00 | 39 | 1007.5 |
| 20260503223026 | 51 | 247 | 1.7 | 10.4 | 0.00 | 0.01 | 0.00 | 39 | 1007.5 |
| 20260503222504 | 51 | 269 | 4.3 | 10.4 | 0.00 | 0.01 | 0.00 | 39 | 1007.5 |
| 20260503222007 | 51 | 275 | 2.6 | 5.2 | 0.00 | 0.01 | 0.00 | 39 | 1007.3 |
| 20260503221534 | 52 | 300 | 1.7 | 7.0 | 0.00 | 0.01 | 0.00 | 42 | 1007.3 |
| 20260503221006 | 51 | 277 | 0.9 | 7.0 | 0.00 | 0.01 | 0.00 | 41 | 1007.3 |
| 20260503220508 | 51 | 203 | 1.7 | 8.7 | 0.00 | 0.01 | 0.00 | 40 | 1007.5 |
| 20260503220029 | 51 | 283 | 1.7 | 9.6 | 0.00 | 0.01 | 0.00 | 40 | 1007.4 |
| 20260503215509 | 51 | 227 | 0.9 | 9.6 | 0.00 | 0.01 | 0.00 | 41 | 1007.3 |
| 20260503215006 | 51 | 260 | 3.5 | 13.9 | 0.00 | 0.01 | 0.00 | 38 | 1007.1 |
| 20260503214528 | 52 | 19 | 7.0 | 13.9 | 0.00 | 0.01 | 0.00 | 37 | 1007.1 |
| 20260503214006 | 51 | 290 | 4.3 | 9.6 | 0.00 | 0.01 | 0.00 | 39 | 1007.0 |
| 20260503213508 | 52 | 259 | 3.5 | 9.6 | 0.00 | 0.01 | 0.00 | 39 | 1007.0 |
| 20260503213008 | 52 | 292 | 2.6 | 16.5 | 0.00 | 0.01 | 0.00 | 1007.0 | |
| 20260503212506 | 51 | 351 | 5.2 | 16.5 | 0.00 | 0.01 | 0.00 | 1007.0 | |
| 20260503212009 | 52 | 270 | 5.2 | 10.4 | 0.00 | 0.01 | 0.00 | 1006.9 | |
| 20260503211508 | 52 | 334 | 1.7 | 12.2 | 0.00 | 0.01 | 0.00 | 37 | 1006.7 |
| 20260503211006 | 52 | 250 | 7.0 | 12.2 | 0.00 | 0.02 | 0.00 | 37 | 1006.6 |
| 20260503210508 | 51 | 298 | 1.7 | 9.6 | 0.00 | 0.02 | 0.00 | 40 | 1006.6 |
| 20260503210029 | 52 | 281 | 2.6 | 8.7 | 0.00 | 0.02 | 0.00 | 39 | 1006.5 |
| 20260503205506 | 51 | 325 | 2.6 | 13.9 | 0.00 | 0.02 | 0.00 | 40 | 1006.6 |